Weather History for CYYJ - October, 2011

Change the Weather History Date:

Monday, October 17, 2011

  Actual Average Record
Temperature  
Mean Temperature 46 °F -  
Max Temperature 56 °F 52 °F 66 °F (2002)
Min Temperature 37 °F 39 °F 35 °F (2010)
Degree Days  
Heating Degree Days 18    
Moisture  
Dew Point 43 °F    
Average Humidity 83    
Maximum Humidity 100    
Minimum Humidity 55    
Precipitation  
Precipitation 0.00 in 0.15 in - ()
Sea Level Pressure  
Sea Level Pressure 30.41 in    
Wind  
Wind Speed 2 mph ()    
Max Wind Speed 6 mph    
Max Gust Speed -    
Visibility 10.8 miles    
Events      
Averages and records for this station are not official NWS values.
T = Trace of Precipitation, MM = Missing Value Source: Averaged Metar Reports

Daily Weather History Graph

Daily Weather History Graph

Search for Another Location

Airport or City:

Trip Planner

Search our weather history database for the weather conditions in past years. The results will help you decide how hot, cold, wet, or windy it might be!

Date:

Astronomy

Oct. 17, 2011 Rise Set
Actual Time 7:36 AM PDT 6:20 PM PDT
Civil Twilight 7:04 AM PDT 6:52 PM PDT
Nautical Twilight 6:28 AM PDT 7:28 PM PDT
Astronomical Twilight 5:51 AM PDT 8:05 PM PDT
Moon 9:46 PM PDT (10/17) 1:08 PM PDT (10/17)
Length of Visible Light 11h 47m
Length of Day
10h 44m
Waning Gibbous, 73% of the Moon is Illuminated
Oct 17
Waning Gibbous
Oct 19
Last Quarter
Oct 26
New
Nov 2
First Quarter
Nov 10
Full

Hourly Weather History & Observations

Time (PDT) Temp. Windchill Dew Point Humidity Pressure Visibility Wind Dir Wind Speed Gust Speed Precip Events Conditions
12:00 AM 39.2 °F - 37.4 °F 93% 30.33 in 15.0 mi Calm Calm - N/A   Partly Cloudy
1:00 AM 39.2 °F 37.0 °F 37.4 °F 93% 30.34 in 12.0 mi WSW 3.5 mph - N/A   Partly Cloudy
2:00 AM 41.0 °F 39.0 °F 39.2 °F 93% 30.37 in 12.0 mi West 3.5 mph - N/A   Overcast
3:00 AM 42.8 °F 40.1 °F 42.8 °F 100% 30.39 in 12.0 mi West 4.6 mph - N/A   Overcast
4:00 AM 44.6 °F 43.1 °F 42.8 °F 93% 30.39 in 12.0 mi SW 3.5 mph - N/A   Overcast
4:16 AM 44.6 °F 42.2 °F - N/A% - 8.0 mi SW 4.6 mph - N/A   Overcast
4:46 AM 44.6 °F - - N/A% - 8.0 mi WSW 2.3 mph - N/A   Overcast
5:00 AM 44 °F - 42 °F 89% 30.40 in 7 mi WSW 3.5 mph - -   Scattered Clouds
5:00 AM 44.6 °F 43.1 °F 42.8 °F 93% 30.40 in 8.0 mi WSW 3.5 mph - N/A   Mostly Cloudy
6:00 AM 42.8 °F - 41.0 °F 93% 30.41 in 8.0 mi Calm Calm - N/A   Mostly Cloudy
7:00 AM 44.6 °F 43.1 °F 41.0 °F 87% 30.43 in 5.0 mi WSW 3.5 mph - N/A   Overcast
8:00 AM 44.6 °F 43.1 °F 42.8 °F 93% 30.43 in 12.0 mi WNW 3.5 mph - N/A   Mostly Cloudy
9:00 AM 46.4 °F 45.2 °F 42.8 °F 87% 30.44 in 12.0 mi West 3.5 mph - N/A   Mostly Cloudy
10:00 AM 48.2 °F - 44.6 °F 87% 30.45 in 20.0 mi WNW 2.3 mph - N/A   Mostly Cloudy
11:00 AM 51 °F - 45 °F 74% 30.47 in 28 mi Calm Calm - -   Mostly Cloudy
11:00 AM 50.0 °F - 44.6 °F 82% 30.47 in 30.0 mi Calm Calm - N/A   Mostly Cloudy
12:00 PM 51.8 °F - 44.6 °F 76% 30.47 in 30.0 mi North 3.5 mph - N/A   Mostly Cloudy
1:00 PM 51.8 °F - 44.6 °F 76% 30.45 in 30.0 mi SW 2.3 mph - N/A   Mostly Cloudy
2:00 PM 55.4 °F - 44.6 °F 67% 30.43 in 30.0 mi NNW 3.5 mph - N/A   Scattered Clouds
3:00 PM 55.4 °F - 44.6 °F 67% 30.42 in 30.0 mi WNW 3.5 mph - N/A   Scattered Clouds
4:00 PM 55.4 °F - 46.4 °F 72% 30.40 in 30.0 mi Calm Calm - N/A   Mostly Cloudy
5:00 PM 56 °F - 44 °F 55% 30.39 in 28 mi ENE 4.6 mph - -   Scattered Clouds
5:00 PM 57.2 °F - 44.6 °F 63% 30.39 in 30.0 mi ENE 4.6 mph - N/A   Mostly Cloudy
6:00 PM 55.4 °F - 42.8 °F 63% 30.39 in 30.0 mi East 2.3 mph - N/A   Mostly Cloudy
7:00 PM 48.2 °F - 42.8 °F 82% 30.39 in 30.0 mi NNW 2.3 mph - N/A   Mostly Cloudy
8:00 PM 46.4 °F 43.5 °F 42.8 °F 87% 30.40 in 30.0 mi North 5.8 mph - N/A   Scattered Clouds
9:00 PM 44.6 °F 42.2 °F 42.8 °F 93% 30.38 in 30.0 mi West 4.6 mph - N/A   Partly Cloudy
10:00 PM 44.6 °F 42.2 °F 41.0 °F 87% 30.38 in 30.0 mi WSW 4.6 mph - N/A   Partly Cloudy
11:00 PM 44 °F - 42 °F 90% 30.38 in 28 mi Calm Calm - -   Clear
11:00 PM 44.6 °F - 42.8 °F 93% 30.38 in 30.0 mi Calm Calm - N/A   Partly Cloudy